Regional Weather Roundup
Issued by NWS

Home | Current Version | Previous Version | Graphics & Text | Print | Product List | Glossary On
Versions: 1 2 3 4 5 6 7 8 9 10 11 12 13 14 15 16 17 18 19 20 21 22 23 24 25 26 27 28 29 30 31 32 33 34 35 36 37 38 39 40 41 42 43 44 45 46 47 48 49 50
641
ASUS43 KIND 231909
RWRIN

WEATHER ROUNDUP FOR INDIANA
NATIONAL WEATHER SERVICE INDIANAPOLIS IN
300 PM EDT WED AUG 23 2017

NOTE: "FAIR" INDICATES FEW OR NO CLOUDS BELOW 12,000 FEET WITH NO
SIGNIFICANT WEATHER AND/OR OBSTRUCTIONS TO VISIBILITY.

* - STATION DOES NOT REPORT WEATHER SUCH AS PRECIPITATION OR FOG.

+ - STATION NOT QUALITY CONTROLLED BY THE NATIONAL WEATHER SERVICE.
    USE DATA WITH CAUTION...ESPECIALLY DEWPOINT AND RELATIVE
    HUMIDITY OBSERVATIONS.

INZ001>003-010>013-019-020-232000-
NORTHWEST INDIANA

CITY           SKY/WX    TMP DP  RH WIND       PRES   REMARKS
GARY /AIRPORT/ MOSUNNY   73  55  53 NE8       30.05S
KNOX *+        SUNNY     73  54  49 N10       30.03S
LA PORTE +     SUNNY     73  52  48 NW9G18    30.04S
MICHIGAN CITY+ SUNNY     72  54  53 N10       30.05S
MONTICELLO +   MOSUNNY   73  51  45 NW10      30.03F
RENSSELAER +   MOSUNNY   73  41  31 NW9G18    30.04F
VALPARAISO     SUNNY     76  57  51 N10       30.04F

$$

LMZ046-743>745-232000-
SOUTHERN LAKE MICHIGAN

STATION/POSITION TIME  TEMP    WIND        PRES    WAVE
                       AIR SEA DIR/SP/G            HT
                 (UTC) (F)     (DEG/KT/KT) (MB)    (FT)
BURNS HARBOR     1840   69      20/ 11/ 14 1017.6F
MICHIGAN CITY    1840   68     350/ 16/ 20   N/A
5NW MICH CITY    1900   68 74   10/ 12/ 17   N/A     4

$$

INZ004-005-014>016-021>024-232000-
NORTH CENTRAL INDIANA

CITY           SKY/WX    TMP DP  RH WIND       PRES   REMARKS
ELKHART        MOSUNNY   73  50  43 NW12      30.02S
GOSHEN         MOSUNNY   75  50  41 NW16      30.01S
LOGANSPORT +   MOSUNNY   70  52  52 W5        30.04F
PERU/GRISSOM   MOSUNNY   74  52  46 NW13      30.02F
ROCHESTER +    SUNNY     77  50  38 NW9       30.03F
SOUTH BEND     MOSUNNY   71  53  52 NW14      30.03S
WARSAW +       MOSUNNY   72  52  49 NW14G20   30.02F

$$

INZ006>009-017-018-025>027-232000-
NORTHEAST INDIANA

CITY           SKY/WX    TMP DP  RH WIND       PRES   REMARKS
AUBURN +       MOSUNNY   73  52  46 W9G17     30.01S
FORT WAYNE     PTSUNNY   76  55  48 W12       30.01F
HUNTINGTON +   PTSUNNY   74  52  46 NW7       30.02S
KENDALLVILLE + MOSUNNY   73  54  50 NW7       30.01F

$$

INZ028-029-035-036-043>045-051>053-232000-
WEST CENTRAL INDIANA

CITY           SKY/WX    TMP DP  RH WIND       PRES   REMARKS
GREENCASTLE +  MOSUNNY   75  46  35 N6        30.06F
LAFAYETTE      MOSUNNY   75  52  44 NW10      30.04F
TERRE HAUTE    SUNNY     79  51  37 N7        30.05F

$$

INZ030>032-037>040-046>048-054>057-064-065-232000-
CENTRAL INDIANA

CITY           SKY/WX    TMP DP  RH WIND       PRES   REMARKS
CP ATTERBURY + MOSUNNY   77  50  38 N10       30.04F
COLUMBUS       MOSUNNY   75  48  38 NW9       30.04F
FRANKFORT +    PTSUNNY   77  53  44 NW7       30.07S
GREENWOOD *+   MOSUNNY   78  49  37 N5        30.05S
INDIANAPOLIS   PTSUNNY   78  50  37 N10G18    30.04F
-EAGLE CREEK   MOSUNNY   77  49  37 NW10      30.04F
KOKOMO +       MOSUNNY   74  53  48 N8        30.04F
MARION +       MOSUNNY   73  55  53 NW7       30.04S
MT COMFORT *+  MOSUNNY   77  52  41 W10       30.04F
SHELBYVILLE    PTSUNNY   78  52  40 W5        30.03F
ZIONSVILLE +   MOSUNNY   73  51  45 N7        30.05F

$$

INZ033-034-041-042-049-050-058-059-232000-
EAST CENTRAL INDIANA

CITY           SKY/WX    TMP DP  RH WIND       PRES   REMARKS
MUNCIE         MOSUNNY   77  51  40 NW10      30.03F
RICHMOND +     PTSUNNY   72  52  49 NW8       30.05S

$$

INZ060-061-067>069-081>083-085>088-232000-
SOUTHWEST INDIANA

CITY           SKY/WX    TMP DP  RH WIND       PRES   REMARKS
EVANSVILLE     MOSUNNY   80  55  42 VRB7      30.05F
HUNTINGBURG +  MOSUNNY   78  58  49 VRB5      30.04F
WASHINGTON +   MOSUNNY   76  52  42 MISG      30.04F

$$

INZ062-063-066-070>080-084-089>092-232000-
SOUTH CENTRAL AND SOUTHEAST INDIANA

CITY           SKY/WX    TMP DP  RH WIND       PRES   REMARKS
BEDFORD +      PTSUNNY   77  54  44 NW6       30.03F
BLOOMINGTON    MOSUNNY   78  51  38 N3        30.04F
MADISON *+     PTSUNNY   77  52  41 N3        30.05F
NORTH VERNON + PTSUNNY   75  59  57 N8        30.04F
SEYMOUR +      PTSUNNY   77  55  47 NW8       30.03F

$$





USA.gov is the U.S. government's official web portal to all federal, state and local government web resources and services.